METEOR 2-1 DEB

Satellite information

Favourite Embed

Satellite Type and Status

DEBRISIN ORBIT

Key statistics

Satellite METEOR 2-1 DEB at a glance.

Uptime

18422

Days in orbit

Revolutions

≈ 14.8

Per day

Orbit

LEO

Low Earth Orbit

Inclination

81.2

Latest

Satellite identification and parameters

Extended collection of information and parameters for METEOR 2-1 DEB.

Object identification

Identified? True

Debris? True

Object name: METEOR 2-1 DEB

International designator: 1975-064E

Object number (NORAD): 38532

Object ID (CCSDS): 38532

Country: COMMONWEALTH OF INDEPENDENT STATES (CIS)

Current information (Y/N): Y

RCS size: SMALL

Orbital parameters

Period: 97.577 minutes

Inclination: 81.1876 deg

SMA: 7020.861 km

Apoapsis: 650.342 km

Periapsis: 635.11 km

RAAN: 46.9276 deg

Eccentricy: 0.00108474

Argument of periapsis: 279.1376 deg

Mean anomaly: 80.8603 deg

Mean motion: 14.75764904 rev/day

Mean motion (dot): 0.00044303 rev/day2

B* drag term: 0.0064264073 1/REarth

Two-line elements (TLE)

Creation date: Dec. 14, 2025, 3:07 a.m.

Reference frame: TEME

Reference center: EARTH

Epoch: Dec. 13, 2025, 12:02 p.m. UTC

TLE line 0: 0 METEOR 2-1 DEB

TLE line 1: 1 38532U 75064E 25347.50154397 .00044303 00000-0 64264-2 0 9996

TLE line 2: 2 38532 81.1876 46.9276 0010847 279.1376 80.8603 14.75764904 80902

Live tracking on map

Real-time ground track for satellite METEOR 2-1 DEB.

In-orbit conjunctions

A list of the most updated potential collisions computed for object METEOR 2-1 DEB.

Target Orbit TCA Probability of collision Miss distance Type
FENGYUN 1C DEB SSO 2024-09-26 13:20:53 0.0005184217 229.0 (m) DEBRIS
FENGYUN 1C DEB SSO 2024-09-09 14:36:33 0.0001190418 73.0 (m) DEBRIS

Associated space launch

Second generation soviet meteorological satellite

METEOR 2-1 DEB was lifted into orbit during the mission ‘Vostok 8A92M | Meteor-2 1’, on board a Vostok 8A92M space rocket.

The launch took place on July 11, 1975, 4:15 a.m. from 41/1.

For more information about the launch, click the button.

Launch to space Vostok 8A92M | Meteor-2 1
Vostok 8A92M | Meteor-2 1

Agency: N/A

Status: Launch Successful

Launch date: July 11, 1975, 4:15 a.m. UTC

Rocket: Vostok 8A92M

Launch pad: 41/1

Location: Plesetsk Cosmodrome, Russian Federation

...

Latest news about this satellite

There are no fresh news available about this satellite. Check back as we update our databases every day.


Newsletter sign-up

Weekly statistics, charts and insights to help you stay on top of the space industry.